SENTINEL-5P

Last updated on Sat Apr 13 2024 01:02:25 GMT+0100 (British Summer Time)

1 42969U 17064A 24103.42418135 .00000124 00000+0 79666-4 0 9990 2 42969 98.7168 43.6356 0000846 98.3097 261.8175 14.19546339336661
UTC large
Height (km)
Speed (km/s)
/
Latitude / Longitude
Inclination (degrees)
Orbital Period (minutes)
Azimuth
Elevation
Range (km)
Doppler Factor

Next 0 passes for location: London (51.5072 / 0.1276)

Sorry there are no passes over London.